Regional Weather Roundup
Issued by NWS Albany, NY

Home | Current Version | Previous Version | Graphics & Text | Print | Product List | Glossary Off
Versions: 1 2 3 4 5 6 7 8 9 10 11 12 13 14 15 16 17 18 19 20 21 22 23 24 25 26 27

000
ASUS41 KALY 231410
RWRALY

NEW YORK STATE HOURLY WEATHER ROUNDUP
NATIONAL WEATHER SERVICE ALBANY NY
1000 AM EDT SUN APR 23 2017

NOTE: "FAIR" INDICATES FEW OR NO CLOUDS BELOW 12,000 FEET WITH NO
SIGNIFICANT WEATHER AND/OR NO OBSTRUCTIONS TO VISIBILITY.

NYZ032-033-038>043-046>054-057>066-NYZ062>081-082-084-231500-
EAST


CITY           SKY/WX    TMP DP  RH WIND       PRES   REMARKS
ALBANY         MOSUNNY   53  35  50 VRB3      30.13S
GLENS FALLS    SUNNY     49  35  58 CALM      30.11F
POUGHKEEPSIE   SUNNY     51  35  54 VRB5      30.13S
NEWBURGH       SUNNY     52  37  58 VRB5      30.14S
MONTGOMERY     SUNNY     52  35  52 MISG      30.12S
WHITE PLAINS   SUNNY     53  36  52 NW10      30.11S
ISLIP          MOSUNNY   53  36  52 N8        30.11F
NEW YORK CITY  MOSUNNY   54  35  48 NE10      30.12F
CENTRAL PARK   SUNNY     54  36  50 VRB6      30.15S
$$

NYZ005>009-017-018-044>046-055-056-231500-
CENTRAL


CITY           SKY/WX    TMP DP  RH WIND       PRES   REMARKS
FULTON         SUNNY     50  39  66 W6        30.12S
SYRACUSE       MOSUNNY   49  39  68 S6        30.13S
ROME           SUNNY     46  38  73 CALM      30.15S
ELMIRA         SUNNY     44  38  79 CALM      30.14S
BINGHAMTON     SUNNY     47  36  65 VRB3      30.11F
MONTICELLO     SUNNY     46  36  66 N3        30.13S
$$

NYZ026>034-041>043-087-231500-
NORTH


CITY           SKY/WX    TMP DP  RH WIND       PRES   REMARKS
WATERTOWN      SUNNY     50  40  68 SW13      30.11S
FORT DRUM      NOT AVBL
OGDENSBURG     FAIR      53  40  60 SW7       30.09S
MASSENA        SUNNY     52  39  61 SW12      30.09F
SARANAC LAKE   SUNNY     45  35  68 W8        30.05F
PLATTSBURGH    SUNNY     47  35  63 SE10      30.09S
$$

NYZ001>004-010>016-019>021-085-231500-
WEST


CITY           SKY/WX    TMP DP  RH WIND       PRES   REMARKS
NIAGARA FALLS  SUNNY     53  38  56 SW12      30.12S
BUFFALO        MOSUNNY   50  35  56 SW8       30.13S
DUNKIRK        SUNNY     53  37  54 SW9       30.14S
JAMESTOWN      SUNNY     45  34  65 SE3       30.13S
WELLSVILLE     SUNNY     50  35  56 CALM      30.13F
ROCHESTER      SUNNY     51  38  60 SW8       30.13S
PENN YAN       SUNNY     50  35  56 SW7       30.13S
$$

             KEY
       WCI = WIND CHILL INDEX
       VSB = VISIBILITY
       HX  = HEAT INDEX
$$




USA.gov is the U.S. government's official web portal to all federal, state and local government web resources and services.